Regional Weather Roundup
Issued by NWS

Home | Current Version | Previous Version | Graphics & Text | Print | Product List | Glossary On
Versions: 1 2 3 4 5 6 7 8 9 10 11 12 13 14 15 16 17 18 19 20 21 22 23 24 25 26 27 28 29 30 31 32 33 34 35 36 37 38 39 40 41 42 43 44 45 46 47
000
ASUS43 KDMX 241507
RWRIA

WEATHER ROUNDUP FOR IOWA
NATIONAL WEATHER SERVICE DES MOINES IA
900 AM CST WED DEC 24 2014

NOTE: "FAIR" INDICATES FEW OR NO CLOUDS BELOW 12,000 FEET WITH NO
SIGNIFICANT WEATHER AND/OR OBSTRUCTIONS TO VISIBILITY.

* - THESE STATIONS ARE NOT NWS STATIONS...THUS NOT UNDER NWS
QUALITY CONTROL.  THEY ALSO DO NOT REPORT WEATHER SUCH
AS PRECIPITATION OR FOG.

IAZ001>003-012>014-020>022-031>034-043>046-241600-
   NORTHWEST IOWA

CITY           SKY/WX    TMP DP  RH WIND       PRES   REMARKS
CARROLL *      CLOUDY    32  30  93 NW20      29.81S WCI  20
CHEROKEE *     CLOUDY    32  32 100 N8        29.83F FOG     WCI  25
DENISON *      CLOUDY    32  32 100 N9        29.82S FOG     WCI  24
LE MARS *      CLOUDY    30  30 100 NW15      29.87R WCI  19
ORANGE CITY *  CLOUDY    32  28  86 NW12      29.84R FOG     WCI  23
SHELDON *      CLOUDY    30  32 100 NW15      29.82S WCI  19
SIOUX CITY     CLOUDY    31  28  89 NW17      29.88S WCI  19
SPENCER        CLOUDY    32  29  88 NW13      29.81F WCI  22
STORM LAKE *   CLOUDY    32  30  93 NW15      29.81F WCI  22
$$

IAZ055>058-069>071-079>083-090>094-241600-
   SOUTHWEST IOWA

CITY           SKY/WX    TMP DP  RH WIND       PRES   REMARKS
ATLANTIC *     CLOUDY    34  32  93 N16G23    29.82S WCI  23
AUDUBON *      SUNNY     32  27  80 NW14      29.82S WCI  22
CLARINDA *     CLOUDY    34  32  93 NW13G20   29.85R WCI  25
COUNCIL BLFS * CLOUDY    32  32 100 NW13G21   29.84S WCI  22
CRESTON *      CLOUDY    34  34 100 NW15      29.78S WCI  24
HARLAN  *      CLOUDY    32  32 100 NW15G21   29.86S WCI  22
LAMONI         CLOUDY    34  32  92 N15G22    29.76F WCI  24
RED OAK *      CLOUDY    34  32  93 NW16G23   29.84S WCI  23
SHENANDOAH *   CLOUDY    34  32  93 NW13      29.86R WCI  25
$$

IAZ047>049-059>061-072>074-084-241600-
   CENTRAL IOWA

CITY           SKY/WX    TMP DP  RH WIND       PRES   REMARKS
AMES           CLOUDY    34  31  88 N12       29.76S WCI  25
ANKENY *       CLOUDY    34  32  93 NW12G20   29.77R WCI  25
CHARITON *     CLOUDY    34  34 100 N14       29.75F FOG     WCI  24
DES MOINES     CLOUDY    35  31  85 N13G21    29.78R WCI  26
GRINNELL*      CLOUDY    34  32  93 NW12      29.72F WCI  25
KNOXVILLE *    CLOUDY    34  32  93 NW12      29.73F WCI  25
MARSHALLTOWN   CLOUDY    34  31  88 NW15      29.73S WCI  24
PELLA *        CLOUDY    36  34  93 NW8       29.75F WCI  29
PERRY *        CLOUDY    34  32  93 NW10      29.79S WCI  26
$$

IAZ004>006-015-016-023>025-035-036-241600-
   NORTH CENTRAL IOWA

CITY           SKY/WX    TMP DP  RH WIND       PRES   REMARKS
ALGONA *       MOCLDY    32  32 100 N16G24    29.78S WCI  21
ESTHERVILLE    CLOUDY    30  30 100 N14       29.79F FOG     WCI  19
FORT DODGE *   CLOUDY    34  28  80 NW8       29.79S WCI  27
MASON CITY     CLOUDY    33  31  92 NW15      29.76R FOG     WCI  23
FOREST CITY *  CLOUDY    32  32 100 NW15G21   29.76R WCI  22
IOWA FALLS *   CLOUDY    34  32  93 NW14      29.75R WCI  24
$$

IAZ007>011-017>019-026>030-037>042-050>054-066-241600-
   NORTHEAST IOWA

CITY           SKY/WX    TMP DP  RH WIND       PRES   REMARKS
CEDAR RAPIDS   CLOUDY    34  32  92 NW13      29.68F WCI  25
CHARLES CITY * CLOUDY    34  32  93 N12G18    29.73R WCI  25
CLINTON *      CLOUDY    36  32  87 NW8       29.69R WCI  29
DECORAH *      CLOUDY    34  32  93 N9        29.68S WCI  26
DUBUQUE        CLOUDY    33  32  96 N14       29.64F FOG     WCI  23
MONTICELLO *   CLOUDY    34  34 100 N9        29.67S WCI  26
OELWEIN *      CLOUDY    34  32  93 NW10      29.69F WCI  26
WATERLOO       LGT RAIN  34  33  96 NW8       29.71F WCI  27
$$

IAZ064-065-067-068-078-241600-
   EAST CENTRAL IOWA

CITY           SKY/WX    TMP DP  RH WIND       PRES   REMARKS
DAVENPORT      CLOUDY    35  33  92 NW10      29.67S FOG     WCI  27
IOWA CITY      CLOUDY    35  32  88 N10       29.70F WCI  27
MT. PLEASANT * CLOUDY    34  34 100 NW13      29.69F WCI  25
MUSCATINE *    CLOUDY    37  34  87 NW12      29.69S WCI  30
QUAD CITIES    CLOUDY    36  34  92 NW6       29.67R FOG     WCI  31
$$

IAZ062-063-075>077-085>089-095>099-241600-
   SOUTHEAST IOWA

CITY           SKY/WX    TMP DP  RH WIND       PRES   REMARKS
BURLINGTON     CLOUDY    36  35  96 NW7       29.68F FOG     WCI  30
FAIRFIELD *    CLOUDY    36  32  87 NW13      29.70F WCI  27
FORT MADISON * CLOUDY    37  37 100 NW7       29.70S FOG     WCI  32
KEOKUK *       CLOUDY    36  34  93 NW6       29.69F FOG     WCI  31
OSKALOOSA *    CLOUDY    34  32  93 NW14      29.72S WCI  24
CENTERVILLE *  FLURRIES  32  32 100 NW12      29.75S WCI  23
OTTUMWA        CLOUDY    34  32  92 NW13      29.71F WCI  25
WASHINGTON *   CLOUDY    36  36 100 N12       29.69S WCI  27
$$

ABBREVIATIONS USED IN REMARKS
   TC - TEMPERATURES IN CELSIUS
  WCI - WIND CHILL INDEX
   HX - HEAT INDEX
  VSB - VISIBILITY
$$




USA.gov is the U.S. government's official web portal to all federal, state and local government web resources and services.